| time (UTC) | temp F | wind direction | speed MPH | gust MPH | rain 1hr in | rain 24hr in | rain mn in | humidity % | barometer mb |
| 20260901105011 | 73 | 167 | 0.0 | 0.0 | 0.00 | 0.00 | 0.00 | 88 | 1016.2 |
| 20260901104529 | 73 | 167 | 0.0 | 0.0 | 0.00 | 0.00 | 0.00 | 87 | 1016.2 |
| 20260901104018 | 73 | 167 | 0.0 | 0.0 | 0.00 | 0.00 | 0.00 | 87 | 1016.1 |
| 20260901103514 | 73 | 167 | 0.0 | 0.0 | 0.00 | 0.00 | 0.00 | 87 | 1016.1 |
| 20260901103028 | 73 | 167 | 0.0 | 0.0 | 0.00 | 0.00 | 0.00 | 87 | 1016.2 |
| 20260901102517 | 73 | 167 | 0.0 | 0.0 | 0.00 | 0.00 | 0.00 | 86 | 1016.0 |
| 20260901102015 | 73 | 167 | 0.0 | 0.0 | 0.00 | 0.00 | 0.00 | 86 | 1016.0 |
| 20260901101546 | 73 | 167 | 0.0 | 0.0 | 0.00 | 0.00 | 0.00 | 86 | 1015.9 |
| 20260901101019 | 73 | 167 | 0.0 | 0.0 | 0.00 | 0.00 | 0.00 | 86 | 1015.9 |
| 20260901100517 | 74 | 167 | 0.0 | 0.0 | 0.00 | 0.00 | 0.00 | 87 | 1016.1 |
| 20260901100035 | 74 | 167 | 0.0 | 0.0 | 0.00 | 0.00 | 0.00 | 87 | 1016.1 |
| 20260901095517 | 74 | 167 | 0.0 | 0.0 | 0.00 | 0.00 | 0.00 | 86 | 1016.0 |
| 20260901095011 | 74 | 167 | 0.0 | 0.0 | 0.00 | 0.00 | 0.00 | 86 | 1016.0 |
| 20260901094533 | 74 | 167 | 0.0 | 0.0 | 0.00 | 0.00 | 0.00 | 87 | 1016.0 |
| 20260901094020 | 74 | 167 | 0.0 | 0.0 | 0.00 | 0.00 | 0.00 | 86 | 1016.2 |
| 20260901093515 | 74 | 173 | 0.0 | 0.0 | 0.00 | 0.00 | 0.00 | 87 | 1016.2 |
| 20260901093025 | 74 | 173 | 0.0 | 0.0 | 0.00 | 0.00 | 0.00 | 87 | 1016.2 |
| 20260901092519 | 75 | 170 | 0.0 | 0.0 | 0.00 | 0.00 | 0.00 | 87 | 1016.2 |
| 20260901092014 | 75 | 169 | 0.0 | 0.0 | 0.00 | 0.00 | 0.00 | 86 | 1016.2 |
| 20260901091504 | 75 | 169 | 0.0 | 0.0 | 0.00 | 0.00 | 0.00 | 86 | 1016.3 |
| 20260901091005 | 75 | 170 | 0.0 | 0.0 | 0.00 | 0.00 | 0.00 | 85 | 1016.3 |
| 20260901090503 | 75 | 169 | 0.0 | 0.0 | 0.00 | 0.00 | 0.00 | 85 | 1016.3 |
| 20260901090007 | 75 | 169 | 0.0 | 0.0 | 0.00 | 0.00 | 0.00 | 84 | 1016.2 |
| 20260901085507 | 75 | 169 | 0.0 | 0.0 | 0.00 | 0.00 | 0.00 | 84 | 1016.2 |
| 20260901085008 | 75 | 169 | 0.0 | 0.0 | 0.00 | 0.00 | 0.00 | 83 | 1016.2 |
| 20260901084526 | 75 | 169 | 0.0 | 0.0 | 0.00 | 0.00 | 0.00 | 83 | 1016.2 |
| 20260901084023 | 75 | 169 | 0.0 | 0.0 | 0.00 | 0.00 | 0.00 | 83 | 1016.1 |
| 20260901083521 | 75 | 169 | 0.0 | 0.0 | 0.00 | 0.00 | 0.00 | 82 | 1016.1 |
| 20260901083018 | 75 | 169 | 0.0 | 0.0 | 0.00 | 0.00 | 0.00 | 82 | 1016.1 |
| 20260901082512 | 76 | 169 | 0.0 | 0.0 | 0.00 | 0.00 | 0.00 | 82 | 1016.2 |
| 20260901082013 | 76 | 169 | 0.0 | 0.0 | 0.00 | 0.00 | 0.00 | 83 | 1016.2 |
| 20260901081527 | 76 | 213 | 0.0 | 0.0 | 0.00 | 0.00 | 0.00 | 83 | 1016.1 |
| 20260901081005 | 76 | 360 | 0.0 | 0.0 | 0.00 | 0.00 | 0.00 | 82 | 1016.2 |
| 20260901080503 | 76 | 360 | 0.0 | 0.0 | 0.00 | 0.00 | 0.00 | 82 | 1016.2 |
| 20260901080006 | 76 | 360 | 0.0 | 0.0 | 0.00 | 0.00 | 0.00 | 82 | 1016.2 |
| 20260901075504 | 76 | 211 | 0.0 | 0.0 | 0.00 | 0.00 | 0.00 | 81 | 1016.2 |
| 20260901075004 | 77 | 192 | 0.0 | 0.0 | 0.00 | 0.00 | 0.00 | 81 | 1016.1 |
| 20260901074509 | 77 | 193 | 0.0 | 0.0 | 0.00 | 0.00 | 0.00 | 81 | 1016.1 |
| 20260901074008 | 77 | 192 | 0.0 | 0.0 | 0.00 | 0.00 | 0.00 | 81 | 1016.1 |
| 20260901073518 | 77 | 192 | 0.0 | 0.0 | 0.00 | 0.00 | 0.00 | 81 | 1016.1 |
| 20260901073037 | 77 | 191 | 0.0 | 0.0 | 0.00 | 0.00 | 0.00 | 81 | 1016.0 |
| 20260901072510 | 77 | 190 | 0.0 | 0.0 | 0.00 | 0.00 | 0.00 | 80 | 1015.9 |
| 20260901072011 | 77 | 180 | 0.0 | 0.0 | 0.00 | 0.00 | 0.00 | 80 | 1016.1 |
| 20260901071521 | 78 | 179 | 0.0 | 0.0 | 0.00 | 0.00 | 0.00 | 79 | 1016.2 |
| 20260901071014 | 78 | 178 | 0.0 | 0.0 | 0.00 | 0.00 | 0.00 | 79 | 1016.2 |
| 20260901070514 | 78 | 177 | 0.0 | 0.0 | 0.00 | 0.00 | 0.00 | 80 | 1016.2 |
| 20260901070028 | 78 | 174 | 0.0 | 0.0 | 0.00 | 0.00 | 0.00 | 79 | 1016.4 |
| 20260901065504 | 78 | 171 | 0.0 | 0.0 | 0.00 | 0.00 | 0.00 | 80 | 1016.4 |
| 20260901065006 | 79 | 171 | 0.0 | 0.0 | 0.00 | 0.00 | 0.00 | 80 | 1016.3 |
| 20260901064518 | 79 | 171 | 0.0 | 0.0 | 0.00 | 0.00 | 0.00 | 79 | 1016.3 |
| 20260901064007 | 79 | 170 | 0.0 | 0.0 | 0.00 | 0.00 | 0.00 | 79 | 1016.5 |
| 20260901063511 | 79 | 178 | 0.0 | 0.0 | 0.00 | 0.00 | 0.00 | 78 | 1016.5 |
| 20260901063031 | 79 | 179 | 0.0 | 0.0 | 0.00 | 0.00 | 0.00 | 78 | 1016.6 |
| 20260901062508 | 79 | 179 | 0.0 | 0.0 | 0.00 | 0.00 | 0.00 | 78 | 1016.5 |
| 20260901062017 | 79 | 177 | 0.0 | 0.0 | 0.00 | 0.00 | 0.00 | 78 | 1016.5 |
| 20260901061520 | 80 | 175 | 0.0 | 0.0 | 0.00 | 0.00 | 0.00 | 78 | 1016.6 |
| 20260901061011 | 80 | 167 | 0.0 | 0.0 | 0.00 | 0.00 | 0.00 | 78 | 1016.5 |
| 20260901060517 | 80 | 165 | 0.0 | 0.0 | 0.00 | 0.00 | 0.00 | 78 | 1016.5 |
| 20260901060034 | 80 | 138 | 0.0 | 0.0 | 0.00 | 0.00 | 0.00 | 78 | 1016.5 |
| 20260901055517 | 80 | 138 | 0.0 | 0.0 | 0.00 | 0.00 | 0.00 | 77 | 1016.6 |
| 20260901055022 | 80 | 360 | 0.0 | 0.0 | 0.00 | 0.00 | 0.00 | 76 | 1016.5 |
| 20260901054529 | 81 | 90 | 0.0 | 0.0 | 0.00 | 0.00 | 0.00 | 77 | 1016.5 |
| 20260901054015 | 81 | 86 | 0.0 | 0.0 | 0.00 | 0.00 | 0.00 | 76 | 1016.5 |
| 20260901053504 | 81 | 166 | 0.0 | 0.0 | 0.00 | 0.00 | 0.00 | 76 | 1016.5 |
| 20260901053008 | 81 | 167 | 0.0 | 0.0 | 0.00 | 0.00 | 0.00 | 75 | 1016.5 |
| 20260901052509 | 81 | 167 | 0.0 | 0.0 | 0.00 | 0.00 | 0.00 | 75 | 1016.4 |
| 20260901052009 | 81 | 167 | 0.0 | 0.0 | 0.00 | 0.00 | 0.00 | 75 | 1016.4 |
| 20260901051515 | 81 | 167 | 0.0 | 0.0 | 0.00 | 0.00 | 0.00 | 74 | 1016.4 |
| 20260901051011 | 81 | 167 | 0.0 | 0.0 | 0.00 | 0.00 | 0.00 | 74 | 1016.4 |
| 20260901050512 | 82 | 167 | 0.0 | 0.0 | 0.00 | 0.00 | 0.00 | 74 | 1016.3 |
| 20260901050032 | 82 | 167 | 0.0 | 0.0 | 0.00 | 0.00 | 0.00 | 73 | 1016.3 |
| 20260901045518 | 82 | 167 | 0.0 | 0.0 | 0.00 | 0.00 | 0.00 | 73 | 1016.3 |
| 20260901045016 | 82 | 167 | 0.0 | 4.0 | 0.00 | 0.00 | 0.00 | 74 | 1016.2 |
| 20260901044525 | 82 | 167 | 0.0 | 4.0 | 0.00 | 0.00 | 0.00 | 74 | 1016.2 |
| 20260901044015 | 82 | 167 | 0.0 | 3.0 | 0.00 | 0.00 | 0.00 | 73 | 1016.1 |
| 20260901043518 | 82 | 211 | 0.0 | 3.0 | 0.00 | 0.00 | 0.00 | 73 | 1016.2 |
| 20260901043037 | 82 | 263 | 0.0 | 3.0 | 0.00 | 0.00 | 0.00 | 73 | 1016.2 |
| 20260901042527 | 82 | 175 | 0.0 | 1.0 | 0.00 | 0.00 | 0.00 | 72 | 1016.2 |
| 20260901042029 | 82 | 175 | 0.0 | 1.0 | 0.00 | 0.00 | 0.00 | 72 | 1016.2 |
| 20260901041515 | 82 | 175 | 0.0 | 2.0 | 0.00 | 0.00 | 0.00 | 72 | 1016.2 |
| 20260901041009 | 83 | 175 | 0.0 | 2.0 | 0.00 | 0.00 | 0.00 | 71 | 1016.2 |
| 20260901040511 | 83 | 218 | 0.0 | 1.0 | 0.00 | 0.00 | 0.00 | 70 | 1016.2 |
| 20260901040018 | 83 | 217 | 0.0 | 1.0 | 0.00 | 0.00 | 0.00 | 70 | 1016.1 |
| 20260901035524 | 83 | 360 | 0.0 | 0.0 | 0.00 | 0.00 | 0.00 | 69 | 1016.2 |
| 20260901035019 | 83 | 360 | 0.0 | 0.0 | 0.00 | 0.00 | 0.00 | 69 | 1016.2 |
| 20260901034529 | 84 | 360 | 0.0 | 1.0 | 0.00 | 0.00 | 0.00 | 69 | 1016.1 |
| 20260901034016 | 84 | 360 | 0.0 | 2.0 | 0.00 | 0.00 | 0.00 | 69 | 1016.1 |
| 20260901033518 | 84 | 360 | 0.0 | 2.0 | 0.00 | 0.00 | 0.00 | 69 | 1016.1 |
| 20260901033039 | 84 | 360 | 0.0 | 1.0 | 0.00 | 0.00 | 0.00 | 68 | 1016.0 |
| 20260901032518 | 84 | 360 | 0.0 | 1.0 | 0.00 | 0.00 | 0.00 | 68 | 1015.9 |
| 20260901032016 | 84 | 360 | 0.0 | 0.0 | 0.00 | 0.00 | 0.00 | 67 | 1015.9 |
| 20260901031535 | 85 | 360 | 0.0 | 0.0 | 0.00 | 0.00 | 0.00 | 67 | 1015.8 |
| 20260901031011 | 85 | 360 | 0.0 | 0.0 | 0.00 | 0.00 | 0.00 | 67 | 1015.7 |
| 20260901030509 | 85 | 360 | 0.0 | 1.0 | 0.00 | 0.00 | 0.00 | 66 | 1015.6 |
| 20260901030034 | 85 | 360 | 0.0 | 2.0 | 0.00 | 0.00 | 0.00 | 66 | 1015.6 |
| 20260901025513 | 85 | 360 | 0.0 | 2.0 | 0.00 | 0.00 | 0.00 | 66 | 1015.6 |
| 20260901025022 | 85 | 360 | 0.0 | 0.0 | 0.00 | 0.00 | 0.00 | 65 | 1015.5 |
| 20260901024525 | 86 | 360 | 0.0 | 0.0 | 0.00 | 0.00 | 0.00 | 65 | 1015.4 |
| 20260901024016 | 86 | 277 | 0.0 | 1.0 | 0.00 | 0.00 | 0.00 | 64 | 1015.4 |
| 20260901023516 | 86 | 225 | 0.0 | 2.0 | 0.00 | 0.00 | 0.00 | 64 | 1015.3 |
| 20260901023034 | 86 | 219 | 0.0 | 2.0 | 0.00 | 0.00 | 0.00 | 64 | 1015.3 |
| 20260901022502 | 86 | 5 | 0.0 | 2.0 | 0.00 | 0.00 | 0.00 | 64 | 1015.4 |
| 20260901022002 | 87 | 18 | 0.0 | 2.0 | 0.00 | 0.00 | 0.00 | 63 | 1015.2 |
| 20260901021508 | 87 | 194 | 0.0 | 2.0 | 0.00 | 0.00 | 0.00 | 63 | 1015.1 |
| 20260901021005 | 87 | 92 | 0.0 | 2.0 | 0.00 | 0.00 | 0.00 | 62 | 1015.1 |
| 20260901020511 | 87 | 292 | 0.0 | 4.0 | 0.00 | 0.00 | 0.00 | 62 | 1015.1 |
| 20260901020036 | 87 | 298 | 0.0 | 4.0 | 0.00 | 0.00 | 0.00 | 62 | 1015.1 |
| 20260901015509 | 88 | 265 | 0.0 | 2.0 | 0.00 | 0.00 | 0.00 | 61 | 1015.1 |
| 20260901015009 | 88 | 158 | 0.0 | 4.0 | 0.00 | 0.00 | 0.00 | 61 | 1014.9 |
| 20260901014519 | 88 | 136 | 1.0 | 6.0 | 0.00 | 0.00 | 0.00 | 60 | 1014.9 |
| 20260901014013 | 88 | 240 | 0.0 | 6.0 | 0.00 | 0.00 | 0.00 | 60 | 1014.9 |
| 20260901013513 | 89 | 294 | 0.0 | 4.0 | 0.00 | 0.00 | 0.00 | 59 | 1014.8 |
| 20260901013025 | 89 | 178 | 0.0 | 4.0 | 0.00 | 0.00 | 0.00 | 58 | 1014.8 |
| 20260901012503 | 89 | 350 | 0.0 | 5.0 | 0.00 | 0.00 | 0.00 | 58 | 1014.7 |
| 20260901012003 | 89 | 148 | 2.0 | 5.0 | 0.00 | 0.00 | 0.00 | 57 | 1014.7 |
| 20260901011507 | 90 | 127 | 0.0 | 9.0 | 0.00 | 0.00 | 0.00 | 55 | 1014.6 |
| 20260901011002 | 90 | 70 | 1.0 | 9.0 | 0.00 | 0.00 | 0.00 | 55 | 1014.7 |
| 20260901010510 | 91 | 5 | 1.0 | 5.0 | 0.00 | 0.00 | 0.00 | 54 | 1014.6 |
| 20260901010010 | 91 | 167 | 0.0 | 0.0 | 0.00 | 0.00 | 0.00 | 53 | 1014.5 |
| 20260901005512 | 91 | 167 | 0.0 | 0.0 | 0.00 | 0.00 | 0.00 | 51 | 1014.4 |
| 20260901005008 | 92 | 167 | 0.0 | 0.0 | 0.00 | 0.00 | 0.00 | 51 | 1014.3 |
| 20260901004520 | 92 | 134 | 0.0 | 3.0 | 0.00 | 0.00 | 0.00 | 51 | 1014.3 |
| 20260901004010 | 92 | 134 | 0.0 | 3.0 | 0.00 | 0.00 | 0.00 | 50 | 1014.3 |
| 20260901003513 | 92 | 259 | 0.0 | 1.0 | 0.00 | 0.00 | 0.00 | 50 | 1014.3 |
| 20260901003018 | 92 | 142 | 0.0 | 2.0 | 0.00 | 0.00 | 0.00 | 50 | 1014.3 |
| 20260901002514 | 92 | 272 | 0.0 | 2.0 | 0.00 | 0.00 | 0.00 | 50 | 1014.3 |
| 20260901002012 | 92 | 190 | 0.0 | 2.0 | 0.00 | 0.00 | 0.00 | 50 | 1014.3 |
| 20260901001537 | 92 | 182 | 0.0 | 2.0 | 0.00 | 0.00 | 0.00 | 50 | 1014.3 |
| 20260901001016 | 92 | 127 | 0.0 | 4.0 | 0.00 | 0.00 | 0.00 | 50 | 1014.3 |
| 20260901000515 | 93 | 89 | 0.0 | 4.0 | 0.00 | 0.00 | 0.00 | 48 | 1014.2 |
| 20260901000030 | 93 | 248 | 0.0 | 4.0 | 0.00 | 0.00 | 0.00 | 48 | 1014.2 |
| 20260831235504 | 93 | 86 | 0.0 | 4.0 | 0.00 | 0.00 | 0.00 | 48 | 1014.1 |
| 20260831235016 | 93 | 150 | 0.0 | 3.0 | 0.00 | 0.00 | 0.00 | 49 | 1014.1 |
| 20260831234512 | 93 | 55 | 0.0 | 2.0 | 0.00 | 0.00 | 0.00 | 49 | 1014.0 |
| 20260831234009 | 94 | 60 | 0.0 | 5.0 | 0.00 | 0.00 | 0.00 | 48 | 1014.1 |
| 20260831233523 | 94 | 65 | 1.0 | 5.0 | 0.00 | 0.00 | 0.00 | 48 | 1014.2 |
| 20260831233044 | 94 | 204 | 1.0 | 5.0 | 0.00 | 0.00 | 0.00 | 48 | 1014.3 |
| 20260831232516 | 94 | 63 | 0.0 | 5.0 | 0.00 | 0.00 | 0.00 | 48 | 1014.3 |
| 20260831232018 | 94 | 185 | 0.0 | 3.0 | 0.00 | 0.00 | 0.00 | 47 | 1014.2 |
| 20260831231534 | 94 | 329 | 0.0 | 6.0 | 0.00 | 0.00 | 0.00 | 47 | 1014.2 |
| 20260831231016 | 94 | 82 | 1.0 | 6.0 | 0.00 | 0.00 | 0.00 | 47 | 1014.1 |
| 20260831230518 | 94 | 58 | 1.0 | 5.0 | 0.00 | 0.00 | 0.00 | 46 | 1014.1 |
| 20260831230029 | 94 | 92 | 1.0 | 4.0 | 0.00 | 0.00 | 0.00 | 48 | 1014.1 |
| 20260831225516 | 93 | 195 | 1.0 | 3.0 | 0.00 | 0.00 | 0.00 | 52 | 1014.2 |
| 20260831225016 | 93 | 32 | 1.0 | 2.0 | 0.00 | 0.00 | 0.00 | 50 | 1014.2 |
| 20260831224509 | 93 | 352 | 0.0 | 2.0 | 0.00 | 0.00 | 0.00 | 51 | 1014.2 |
| 20260831224016 | 93 | 352 | 1.0 | 2.0 | 0.00 | 0.00 | 0.00 | 51 | 1014.2 |
| 20260831223518 | 93 | 313 | 1.0 | 4.0 | 0.00 | 0.00 | 0.00 | 50 | 1014.2 |
| 20260831223012 | 94 | 36 | 1.0 | 4.0 | 0.00 | 0.00 | 0.00 | 50 | 1014.1 |
| 20260831222521 | 94 | 215 | 0.0 | 3.0 | 0.00 | 0.00 | 0.00 | 48 | 1014.1 |
| 20260831222019 | 95 | 69 | 0.0 | 7.0 | 0.00 | 0.00 | 0.00 | 47 | 1014.2 |
| 20260831221532 | 95 | 57 | 2.0 | 7.0 | 0.00 | 0.00 | 0.00 | 46 | 1014.2 |
| 20260831221014 | 95 | 39 | 1.0 | 5.0 | 0.00 | 0.00 | 0.00 | 47 | 1014.2 |
| 20260831220519 | 96 | 126 | 1.0 | 4.0 | 0.00 | 0.00 | 0.00 | 48 | 1014.1 |
| 20260831220029 | 97 | 67 | 1.0 | 8.0 | 0.00 | 0.00 | 0.00 | 47 | 1014.2 |
| 20260831215514 | 98 | 317 | 0.0 | 8.0 | 0.00 | 0.00 | 0.00 | 44 | 1014.1 |
| 20260831215018 | 98 | 78 | 1.0 | 8.0 | 0.00 | 0.00 | 0.00 | 43 | 1014.2 |
| 20260831214535 | 98 | 184 | 0.0 | 6.0 | 0.00 | 0.00 | 0.00 | 46 | 1014.2 |
| 20260831214016 | 97 | 132 | 1.0 | 5.0 | 0.00 | 0.00 | 0.00 | 44 | 1014.3 |
| 20260831213519 | 97 | 53 | 1.0 | 5.0 | 0.00 | 0.00 | 0.00 | 45 | 1014.4 |
| 20260831213037 | 97 | 48 | 1.0 | 5.0 | 0.00 | 0.00 | 0.00 | 46 | 1014.5 |
| 20260831212526 | 98 | 51 | 1.0 | 5.0 | 0.00 | 0.00 | 0.00 | 46 | 1014.5 |
| 20260831212020 | 97 | 27 | 0.0 | 4.0 | 0.00 | 0.00 | 0.00 | 47 | 1014.6 |
| 20260831211536 | 98 | 50 | 2.0 | 5.0 | 0.00 | 0.00 | 0.00 | 47 | 1014.6 |
| 20260831211012 | 97 | 69 | 1.0 | 5.0 | 0.00 | 0.00 | 0.00 | 47 | 1014.7 |
| 20260831210518 | 95 | 70 | 1.0 | 3.0 | 0.00 | 0.00 | 0.00 | 51 | 1014.8 |
| 20260831210023 | 94 | 39 | 1.0 | 3.0 | 0.00 | 0.00 | 0.00 | 49 | 1014.9 |
| 20260831205514 | 94 | 64 | 2.0 | 5.0 | 0.00 | 0.00 | 0.00 | 50 | 1015.0 |
| 20260831205018 | 95 | 69 | 1.0 | 5.0 | 0.00 | 0.00 | 0.00 | 50 | 1015.0 |
| 20260831204536 | 96 | 36 | 2.0 | 5.0 | 0.00 | 0.00 | 0.00 | 49 | 1015.0 |
| 20260831204021 | 98 | 101 | 1.0 | 5.0 | 0.00 | 0.00 | 0.00 | 47 | 1015.1 |
| 20260831203518 | 99 | 212 | 2.0 | 7.0 | 0.00 | 0.00 | 0.00 | 46 | 1015.1 |
| 20260831203035 | 99 | 232 | 1.0 | 9.0 | 0.00 | 0.00 | 0.00 | 46 | 1015.1 |
| 20260831202516 | 99 | 200 | 4.0 | 9.0 | 0.00 | 0.00 | 0.00 | 44 | 1015.2 |
| 20260831202020 | 99 | 325 | 1.0 | 8.0 | 0.00 | 0.00 | 0.00 | 43 | 1015.3 |
| 20260831201541 | 98 | 60 | 3.0 | 7.0 | 0.00 | 0.00 | 0.00 | 43 | 1015.4 |
| 20260831201023 | 98 | 74 | 2.0 | 5.0 | 0.00 | 0.00 | 0.00 | 46 | 1015.4 |
| 20260831200510 | 98 | 27 | 1.0 | 6.0 | 0.00 | 0.00 | 0.00 | 45 | 1015.4 |
| 20260831200041 | 98 | 67 | 1.0 | 6.0 | 0.00 | 0.00 | 0.00 | 44 | 1015.4 |
| 20260831195519 | 98 | 328 | 0.0 | 5.0 | 0.00 | 0.00 | 0.00 | 48 | 1015.5 |
| 20260831195018 | 98 | 67 | 1.0 | 5.0 | 0.00 | 0.00 | 0.00 | 47 | 1015.5 |
| 20260831194612 | 98 | 136 | 1.0 | 5.0 | 0.00 | 0.00 | 0.00 | 49 | 1015.6 |
| 20260831194020 | 98 | 73 | 2.0 | 5.0 | 0.00 | 0.00 | 0.00 | 48 | 1015.6 |
| 20260831193522 | 97 | 136 | 2.0 | 5.0 | 0.00 | 0.00 | 0.00 | 49 | 1015.7 |
| 20260831193040 | 96 | 352 | 2.0 | 5.0 | 0.00 | 0.00 | 0.00 | 49 | 1015.8 |
| 20260831192520 | 94 | 352 | 1.0 | 3.0 | 0.00 | 0.00 | 0.00 | 51 | 1016.0 |
| 20260831192018 | 92 | 167 | 0.0 | 2.0 | 0.00 | 0.00 | 0.00 | 56 | 1016.1 |
| 20260831191542 | 92 | 89 | 0.0 | 2.0 | 0.00 | 0.00 | 0.00 | 55 | 1016.3 |
| 20260831191020 | 92 | 161 | 0.0 | 2.0 | 0.00 | 0.00 | 0.00 | 54 | 1016.3 |
| 20260831190515 | 93 | 119 | 0.0 | 5.0 | 0.00 | 0.00 | 0.00 | 55 | 1016.3 |
| 20260831190043 | 95 | 89 | 1.0 | 5.0 | 0.00 | 0.00 | 0.00 | 50 | 1016.3 |
| 20260831185522 | 96 | 47 | 1.0 | 5.0 | 0.00 | 0.00 | 0.00 | 52 | 1016.4 |
| 20260831185011 | 95 | 67 | 2.0 | 5.0 | 0.00 | 0.00 | 0.00 | 54 | 1016.5 |
| 20260831184602 | 93 | 35 | 1.0 | 3.0 | 0.00 | 0.00 | 0.00 | 55 | 1016.7 |
| 20260831184019 | 94 | 76 | 1.0 | 5.0 | 0.00 | 0.00 | 0.00 | 55 | 1016.7 |
| 20260831183514 | 94 | 34 | 1.0 | 5.0 | 0.00 | 0.00 | 0.00 | 55 | 1016.6 |
| 20260831183033 | 93 | 290 | 1.0 | 3.0 | 0.00 | 0.00 | 0.00 | 56 | 1016.8 |
| 20260831182516 | 92 | 63 | 0.0 | 5.0 | 0.00 | 0.00 | 0.00 | 57 | 1016.8 |
| 20260831182018 | 94 | 99 | 2.0 | 5.0 | 0.00 | 0.00 | 0.00 | 54 | 1017.0 |
| 20260831181531 | 94 | 290 | 2.0 | 5.0 | 0.00 | 0.00 | 0.00 | 56 | 1016.8 |
| 20260831181007 | 92 | 175 | 1.0 | 5.0 | 0.00 | 0.00 | 0.00 | 57 | 1016.9 |
| 20260831180510 | 92 | 49 | 1.0 | 5.0 | 0.00 | 0.00 | 0.00 | 57 | 1017.2 |
| 20260831180013 | 93 | 61 | 1.0 | 6.0 | 0.00 | 0.00 | 0.00 | 55 | 1017.2 |
| 20260831175510 | 94 | 284 | 2.0 | 6.0 | 0.00 | 0.00 | 0.00 | 53 | 1017.3 |
| 20260831175012 | 94 | 45 | 1.0 | 5.0 | 0.00 | 0.00 | 0.00 | 53 | 1017.3 |
| 20260831174520 | 94 | 92 | 1.0 | 5.0 | 0.00 | 0.00 | 0.00 | 54 | 1017.2 |
| 20260831174012 | 93 | 271 | 1.0 | 5.0 | 0.00 | 0.00 | 0.00 | 58 | 1017.4 |
| 20260831173504 | 91 | 258 | 0.0 | 3.0 | 0.00 | 0.00 | 0.00 | 61 | 1017.5 |
| 20260831173004 | 93 | 40 | 1.0 | 4.0 | 0.00 | 0.00 | 0.00 | 57 | 1017.6 |
| 20260831172522 | 93 | 23 | 1.0 | 4.0 | 0.00 | 0.00 | 0.00 | 57 | 1017.7 |
| 20260831172019 | 92 | 338 | 1.0 | 3.0 | 0.00 | 0.00 | 0.00 | 60 | 1017.7 |
| 20260831171534 | 91 | 51 | 1.0 | 4.0 | 0.00 | 0.00 | 0.00 | 62 | 1017.8 |
| 20260831171005 | 94 | 90 | 1.0 | 4.0 | 0.00 | 0.00 | 0.00 | 57 | 1017.7 |
| 20260831170524 | 92 | 9 | 1.0 | 3.0 | 0.00 | 0.00 | 0.00 | 61 | 1017.7 |
| 20260831170032 | 91 | 17 | 0.0 | 3.0 | 0.00 | 0.00 | 0.00 | 64 | 1017.7 |
| 20260831165506 | 92 | 292 | 0.0 | 3.0 | 0.00 | 0.00 | 0.00 | 62 | 1017.8 |
| 20260831165012 | 90 | 32 | 1.0 | 3.0 | 0.00 | 0.00 | 0.00 | 64 | 1017.9 |
| 20260831164537 | 90 | 24 | 0.0 | 5.0 | 0.00 | 0.00 | 0.00 | 65 | 1018.0 |
| 20260831164018 | 91 | 178 | 2.0 | 5.0 | 0.00 | 0.00 | 0.00 | 64 | 1018.0 |
| 20260831163518 | 90 | 323 | 1.0 | 4.0 | 0.00 | 0.00 | 0.00 | 65 | 1018.0 |
| 20260831163036 | 91 | 77 | 1.0 | 4.0 | 0.00 | 0.00 | 0.00 | 64 | 1018.0 |
| 20260831162518 | 89 | 105 | 2.0 | 4.0 | 0.00 | 0.00 | 0.00 | 67 | 1018.1 |
| 20260831162003 | 89 | 38 | 1.0 | 4.0 | 0.00 | 0.00 | 0.00 | 67 | 1018.1 |
| 20260831161510 | 88 | 171 | 1.0 | 4.0 | 0.00 | 0.00 | 0.00 | 67 | 1018.1 |
| 20260831161020 | 88 | 52 | 1.0 | 5.0 | 0.00 | 0.00 | 0.00 | 66 | 1018.2 |
| 20260831160505 | 89 | 155 | 1.0 | 5.0 | 0.00 | 0.00 | 0.00 | 66 | 1018.3 |
| 20260831160026 | 89 | 93 | 1.0 | 5.0 | 0.00 | 0.00 | 0.00 | 67 | 1018.2 |
| 20260831155513 | 89 | 5 | 1.0 | 5.0 | 0.00 | 0.00 | 0.00 | 66 | 1018.2 |
| 20260831155023 | 89 | 72 | 1.0 | 4.0 | 0.00 | 0.00 | 0.00 | 65 | 1018.1 |
| 20260831154601 | 89 | 189 | 1.0 | 4.0 | 0.00 | 0.00 | 0.00 | 66 | 1018.2 |
| 20260831154023 | 88 | 121 | 0.0 | 3.0 | 0.00 | 0.00 | 0.00 | 66 | 1018.2 |
| 20260831153516 | 88 | 227 | 1.0 | 3.0 | 0.00 | 0.00 | 0.00 | 67 | 1018.1 |
| 20260831153042 | 87 | 32 | 0.0 | 3.0 | 0.00 | 0.00 | 0.00 | 70 | 1018.1 |
| 20260831152519 | 87 | 87 | 0.0 | 4.0 | 0.00 | 0.00 | 0.00 | 70 | 1018.1 |
| 20260831152021 | 87 | 62 | 2.0 | 4.0 | 0.00 | 0.00 | 0.00 | 70 | 1018.1 |
| 20260831151534 | 87 | 97 | 0.0 | 3.0 | 0.00 | 0.00 | 0.00 | 72 | 1018.1 |
| 20260831151014 | 86 | 98 | 0.0 | 3.0 | 0.00 | 0.00 | 0.00 | 72 | 1018.1 |
| 20260831150502 | 86 | 46 | 0.0 | 3.0 | 0.00 | 0.00 | 0.00 | 74 | 1018.1 |
| 20260831150034 | 85 | 82 | 1.0 | 5.0 | 0.00 | 0.00 | 0.00 | 75 | 1018.1 |
| 20260831145509 | 85 | 352 | 0.0 | 5.0 | 0.00 | 0.00 | 0.00 | 76 | 1018.2 |
| 20260831145006 | 84 | 23 | 1.0 | 3.0 | 0.00 | 0.00 | 0.00 | 78 | 1018.1 |
| 20260831144517 | 83 | 176 | 0.0 | 3.0 | 0.00 | 0.00 | 0.00 | 80 | 1018.1 |
| 20260831144019 | 83 | 55 | 1.0 | 4.0 | 0.00 | 0.00 | 0.00 | 87 | 1018.1 |
| 20260831143515 | 80 | 229 | 0.0 | 4.0 | 0.00 | 0.00 | 0.00 | 87 | 1018.1 |
| 20260831143017 | 79 | 66 | 1.0 | 3.0 | 0.00 | 0.00 | 0.00 | 89 | 1018.1 |
| 20260831142511 | 79 | 47 | 0.0 | 0.0 | 0.00 | 0.00 | 0.00 | 90 | 1018.2 |
| 20260831142014 | 78 | 119 | 0.0 | 0.0 | 0.00 | 0.00 | 0.00 | 91 | 1018.1 |
| 20260831141523 | 78 | 115 | 0.0 | 0.0 | 0.00 | 0.00 | 0.00 | 91 | 1018.0 |
| 20260831141019 | 77 | 54 | 0.0 | 0.0 | 0.00 | 0.00 | 0.00 | 91 | 1018.0 |
| 20260831140518 | 77 | 67 | 0.0 | 0.0 | 0.00 | 0.00 | 0.00 | 91 | 1018.1 |
| 20260831140033 | 77 | 67 | 0.0 | 0.0 | 0.00 | 0.00 | 0.00 | 91 | 1018.2 |
| 20260831135523 | 76 | 177 | 0.0 | 0.0 | 0.00 | 0.00 | 0.00 | 92 | 1018.1 |
| 20260831135019 | 76 | 39 | 0.0 | 0.0 | 0.00 | 0.00 | 0.00 | 92 | 1017.9 |
| 20260831134533 | 76 | 182 | 0.0 | 0.0 | 0.00 | 0.00 | 0.00 | 91 | 1017.9 |
| 20260831134017 | 75 | 182 | 0.0 | 0.0 | 0.00 | 0.00 | 0.00 | 91 | 1017.8 |
| 20260831133515 | 75 | 181 | 0.0 | 0.0 | 0.00 | 0.00 | 0.00 | 91 | 1017.9 |
| 20260831133012 | 74 | 181 | 0.0 | 0.0 | 0.00 | 0.00 | 0.00 | 91 | 1017.8 |
| 20260831132510 | 74 | 182 | 0.0 | 0.0 | 0.00 | 0.00 | 0.00 | 91 | 1017.8 |
| 20260831132009 | 74 | 360 | 0.0 | 0.0 | 0.00 | 0.00 | 0.00 | 90 | 1017.7 |
| 20260831131518 | 73 | 360 | 0.0 | 0.0 | 0.00 | 0.00 | 0.00 | 90 | 1017.6 |
| 20260831131014 | 73 | 210 | 0.0 | 0.0 | 0.00 | 0.00 | 0.00 | 90 | 1017.5 |
| 20260831130512 | 73 | 360 | 0.0 | 0.0 | 0.00 | 0.00 | 0.00 | 90 | 1017.4 |
| 20260831130040 | 73 | 360 | 0.0 | 0.0 | 0.00 | 0.00 | 0.00 | 90 | 1017.4 |
| 20260831125515 | 73 | 360 | 0.0 | 0.0 | 0.00 | 0.00 | 0.00 | 90 | 1017.3 |
| 20260831125015 | 73 | 227 | 0.0 | 0.0 | 0.00 | 0.00 | 0.00 | 90 | 1017.3 |
| 20260831124530 | 73 | 188 | 0.0 | 0.0 | 0.00 | 0.00 | 0.00 | 90 | 1017.3 |
| 20260831124015 | 73 | 187 | 0.0 | 1.0 | 0.00 | 0.00 | 0.00 | 90 | 1017.3 |
| 20260831123516 | 73 | 186 | 0.0 | 1.0 | 0.00 | 0.00 | 0.00 | 89 | 1017.2 |
| 20260831123032 | 73 | 186 | 0.0 | 1.0 | 0.00 | 0.00 | 0.00 | 90 | 1017.1 |
| 20260831122506 | 73 | 186 | 0.0 | 0.0 | 0.00 | 0.00 | 0.00 | 89 | 1017.1 |
| 20260831122008 | 73 | 186 | 0.0 | 0.0 | 0.00 | 0.00 | 0.00 | 89 | 1017.0 |
| 20260831121531 | 73 | 186 | 0.0 | 0.0 | 0.00 | 0.00 | 0.00 | 89 | 1017.0 |
| 20260831121013 | 73 | 186 | 0.0 | 1.0 | 0.00 | 0.00 | 0.00 | 89 | 1016.9 |
| 20260831120518 | 73 | 186 | 0.0 | 2.0 | 0.00 | 0.00 | 0.00 | 89 | 1016.7 |
| 20260831120037 | 73 | 186 | 0.0 | 2.0 | 0.00 | 0.00 | 0.00 | 89 | 1016.7 |
| 20260831115558 | 73 | 186 | 0.0 | 0.0 | 0.00 | 0.00 | 0.00 | 89 | 1016.7 |
| 20260831115017 | 73 | 186 | 0.0 | 0.0 | 0.00 | 0.00 | 0.00 | 89 | 1016.6 |
| 20260831114537 | 73 | 186 | 0.0 | 0.0 | 0.00 | 0.00 | 0.00 | 89 | 1016.6 |
| 20260831114024 | 73 | 186 | 0.0 | 0.0 | 0.00 | 0.00 | 0.00 | 88 | 1016.5 |
| 20260831113517 | 73 | 186 | 0.0 | 0.0 | 0.00 | 0.00 | 0.00 | 88 | 1016.5 |
| 20260831113031 | 73 | 186 | 0.0 | 0.0 | 0.00 | 0.00 | 0.00 | 88 | 1016.5 |
| 20260831112518 | 73 | 186 | 0.0 | 0.0 | 0.00 | 0.00 | 0.00 | 87 | 1016.4 |
| 20260831112016 | 73 | 186 | 0.0 | 0.0 | 0.00 | 0.00 | 0.00 | 87 | 1016.4 |
| 20260831111513 | 73 | 186 | 0.0 | 0.0 | 0.00 | 0.00 | 0.00 | 87 | 1016.4 |
| 20260831111010 | 74 | 186 | 0.0 | 0.0 | 0.00 | 0.00 | 0.00 | 87 | 1016.3 |
| 20260831110512 | 74 | 186 | 0.0 | 0.0 | 0.00 | 0.00 | 0.00 | 87 | 1016.3 |
| 20260831110041 | 74 | 187 | 0.0 | 0.0 | 0.00 | 0.00 | 0.00 | 87 | 1016.3 |
| 20260831105515 | 74 | 186 | 0.0 | 0.0 | 0.00 | 0.00 | 0.00 | 87 | 1016.3 |